Radioactive Concentration measured by Seawater Radiation Monitor near Fukushima Daiichi Nuclear Power Station
Date,Time,Cs137(Bq/L),Cs134(Bq/L),Total β(Bq/L)
2017/08/15,00:00,1.0,0.074,ND
2017/08/15,00:10,1.0,0.043,ND
2017/08/15,00:20,1.0,0.039,ND
2017/08/15,00:30,1.0,0.038,ND
2017/08/15,00:40,1.0,0.037,ND
2017/08/15,00:50,1.1,0.065,ND
2017/08/15,01:00,1.1,0.070,ND
2017/08/15,01:10,1.1,0.078,ND
2017/08/15,01:20,1.1,0.087,ND
2017/08/15,01:30,1.2,0.086,ND
2017/08/15,01:40,1.2,0.084,ND
2017/08/15,01:50,1.2,0.088,ND
2017/08/15,02:00,1.2,0.081,ND
2017/08/15,02:10,1.2,0.081,ND
2017/08/15,02:20,1.1,0.054,ND
2017/08/15,02:30,1.1,0.081,ND
2017/08/15,02:40,1.1,0.089,ND
2017/08/15,02:50,1.1,0.077,ND
2017/08/15,03:00,1.1,0.072,ND
2017/08/15,03:10,1.0,0.051,ND
2017/08/15,03:20,1.0,0.057,ND
2017/08/15,03:30,0.99,0.058,ND
2017/08/15,03:40,0.99,0.075,ND
2017/08/15,03:50,0.97,0.080,ND
2017/08/15,04:00,0.96,0.081,ND
2017/08/15,04:10,0.95,0.080,ND
2017/08/15,04:20,0.93,0.086,ND
2017/08/15,04:30,0.90,0.096,ND
2017/08/15,04:40,0.90,0.095,ND
2017/08/15,04:50,0.90,0.089,ND
2017/08/15,05:00,0.92,0.084,ND
2017/08/15,05:10,0.92,0.085,ND
2017/08/15,05:20,0.95,0.068,ND
2017/08/15,05:30,0.95,0.063,ND
2017/08/15,05:40,0.93,0.060,ND
2017/08/15,05:50,0.93,0.062,ND
2017/08/15,06:00,0.89,0.072,ND
2017/08/15,06:10,0.91,0.068,ND
2017/08/15,06:20,0.85,0.036,ND
2017/08/15,06:30,0.87,0.063,ND
2017/08/15,06:40,0.83,0.029,ND
2017/08/15,06:50,0.86,0.052,ND
2017/08/15,07:00,0.86,0.039,ND
2017/08/15,07:10,0.84,0.038,ND
2017/08/15,07:20,0.82,0.041,ND
2017/08/15,07:30,0.79,ND,ND
2017/08/15,07:40,0.79,ND,ND
2017/08/15,07:50,0.85,0.026,ND
2017/08/15,08:00,0.78,ND,ND
2017/08/15,08:10,0.76,ND,ND
2017/08/15,08:20,0.74,ND,ND
2017/08/15,08:30,0.82,ND,ND
2017/08/15,08:40,0.74,0.033,ND
2017/08/15,08:50,0.70,0.029,ND
2017/08/15,09:00,0.68,0.036,ND
2017/08/15,09:10,0.67,0.045,ND
2017/08/15,09:20,0.64,0.049,ND
2017/08/15,09:30,0.65,0.046,ND
2017/08/15,09:40,0.66,0.041,ND
2017/08/15,09:50,0.67,0.043,ND
2017/08/15,10:00,0.67,0.037,ND
2017/08/15,10:10,0.65,0.037,ND
2017/08/15,10:20,0.70,0.028,ND
2017/08/15,10:30,0.70,0.025,ND
2017/08/15,10:40,0.69,0.029,ND
2017/08/15,10:50,0.70,0.030,ND
2017/08/15,11:00,0.68,ND,ND
2017/08/15,11:10,0.66,ND,ND
2017/08/15,11:20,0.64,ND,ND
2017/08/15,11:30,0.63,ND,ND
2017/08/15,11:40,0.62,ND,ND
2017/08/15,11:50,0.60,ND,ND
2017/08/15,12:00,0.60,0.039,ND
2017/08/15,12:10,0.63,0.050,ND
2017/08/15,12:20,0.63,0.049,ND
2017/08/15,12:30,0.63,0.054,ND
2017/08/15,12:40,0.65,0.053,ND
2017/08/15,12:50,0.68,0.053,ND
2017/08/15,13:00,0.70,0.047,ND
2017/08/15,13:10,0.68,ND,ND
2017/08/15,13:20,0.65,ND,ND
2017/08/15,13:30,0.65,ND,ND
2017/08/15,13:40,0.64,ND,ND
2017/08/15,13:50,0.63,ND,ND
2017/08/15,14:00,0.64,ND,ND
2017/08/15,14:10,0.62,ND,ND
2017/08/15,14:20,0.57,0.026,ND
2017/08/15,14:30,0.60,ND,ND
2017/08/15,14:40,0.57,ND,ND
2017/08/15,14:50,0.56,ND,ND
2017/08/15,15:00,0.54,ND,ND
2017/08/15,15:10,0.54,ND,ND
2017/08/15,15:20,0.52,ND,ND
2017/08/15,15:30,0.52,ND,ND
2017/08/15,15:40,0.61,ND,ND
2017/08/15,15:50,0.61,ND,ND
2017/08/15,16:00,0.52,ND,ND
2017/08/15,16:10,0.60,ND,ND
2017/08/15,16:20,0.58,0.036,ND
2017/08/15,16:30,0.56,0.040,ND
2017/08/15,16:40,0.57,0.031,ND
2017/08/15,16:50,0.58,0.026,ND
2017/08/15,17:00,0.58,0.026,ND
2017/08/15,17:10,0.57,0.031,ND
2017/08/15,17:20,0.59,ND,ND
2017/08/15,17:30,0.55,0.031,ND
2017/08/15,17:40,0.55,0.031,ND
2017/08/15,17:50,0.59,ND,ND
2017/08/15,18:00,0.58,ND,ND
2017/08/15,18:10,0.57,ND,ND
2017/08/15,18:20,0.50,ND,ND
2017/08/15,18:30,0.51,ND,ND
2017/08/15,18:40,0.53,0.036,ND
2017/08/15,18:50,0.53,0.036,ND
2017/08/15,19:00,0.52,0.041,ND
2017/08/15,19:10,0.53,0.042,ND
2017/08/15,19:20,0.51,0.052,ND
2017/08/15,19:30,0.52,0.044,ND
2017/08/15,19:40,0.53,0.042,ND
2017/08/15,19:50,0.51,0.046,ND
2017/08/15,20:00,0.51,ND,ND
2017/08/15,20:10,0.51,ND,ND
2017/08/15,20:20,0.56,0.027,ND
2017/08/15,20:30,0.60,ND,ND
2017/08/15,20:40,0.60,ND,ND
2017/08/15,20:50,0.56,0.027,ND
2017/08/15,21:00,0.57,0.027,ND
2017/08/15,21:10,0.62,ND,ND
2017/08/15,21:20,0.58,ND,ND
2017/08/15,21:30,0.56,ND,ND
2017/08/15,21:40,0.50,ND,ND
2017/08/15,21:50,0.51,ND,ND
2017/08/15,22:00,0.58,ND,ND
2017/08/15,22:10,0.58,ND,ND
2017/08/15,22:20,0.52,ND,ND
2017/08/15,22:30,0.53,ND,ND
2017/08/15,22:40,0.59,ND,ND
2017/08/15,22:50,0.59,ND,ND
2017/08/15,23:00,0.50,ND,ND
2017/08/15,23:10,0.50,ND,ND
2017/08/15,23:20,0.58,ND,ND
2017/08/15,23:30,0.52,ND,ND
2017/08/15,23:40,0.54,ND,ND
2017/08/15,23:50,0.53,ND,ND
